Location: Newark
(13.8117°N, 3.6025°W)
Time: 17:33:14
(UTC+00:00)

N. Korean satellite - Visible Passes

Search period start: 23 August 2019 00:00
Search period end: 02 September 2019 00:00
Orbit: 457 x 507 km, 97.2° (Epoch: 23 August)

Date Brightness Start Highest point End Pass type
(mag) Time Alt. Az. Time Alt. Az. Time Alt. Az.
24 Aug 8.5 05:35:04 10° NNE 05:38:15 33° E 05:41:24 10° SSE visible
25 Aug 9.7 05:11:21 10° ENE 05:13:05 13° E 05:14:48 10° SE visible
28 Aug 9.0 05:28:02 10° NE 05:30:58 25° E 05:33:51 10° SSE visible
01 Sep 9.5 05:21:05 10° NE 05:23:38 19° E 05:26:10 10° SSE visible
